contact:dominique.lefevre@mio.osupytheas.fr, maurice.libes@osupytheas.fr, didier.mallarino@osupytheas.fr
Project:EMSO http://www.emso-fr.org/EMSO-France
Depth: 2436.0 m
Title:EMSO Ligure Ouest : Data MII capteur CSTAR
DateTime,Latitude,Longitude,Instrument_Serial,Reference_Counts,Signal_Counts,Corrected_Signal_raw_counts,Calculated_Beam_c_inverse_meters,Internal_thermistor_counts
DateTime,Latitude,Longitude,Instrument_Serial,Reference_Counts,Signal_Counts,Corrected_Signal_raw_counts,Calculated_Beam_c_inverse_meters,Internal_thermistor_counts
2023-02-06T00:00:30,42.805,6.029,CST-1368DR,4393,4854,11742,01.140,551
2023-02-06T00:03:31,42.805,6.029,CST-1368DR,4393,4854,11740,01.141,551
2023-02-06T00:06:33,42.805,6.029,CST-1368DR,4393,4853,11739,01.142,551
2023-02-06T00:09:34,42.805,6.029,CST-1368DR,4393,4853,11739,01.142,551
2023-02-06T00:12:36,42.805,6.029,CST-1368DR,4393,4854,11741,01.141,551
2023-02-06T00:15:38,42.805,6.029,CST-1368DR,4393,4851,11733,01.144,551
2023-02-06T00:18:39,42.805,6.029,CST-1368DR,4393,4851,11735,01.143,551
2023-02-06T00:21:41,42.805,6.029,CST-1368DR,4393,4851,11733,01.144,551
2023-02-06T00:24:42,42.805,6.029,CST-1368DR,4393,4852,11737,01.142,551
2023-02-06T00:27:44,42.805,6.029,CST-1368DR,4393,4854,11740,01.141,551
2023-02-06T00:30:46,42.805,6.029,CST-1368DR,4393,4854,11741,01.141,551
2023-02-06T00:33:47,42.805,6.029,CST-1368DR,4393,4853,11739,01.142,551
2023-02-06T00:36:49,42.805,6.029,CST-1368DR,4393,4853,11738,01.142,551
2023-02-06T00:39:50,42.805,6.029,CST-1368DR,4393,4854,11740,01.141,551
2023-02-06T00:42:52,42.805,6.029,CST-1368DR,4393,4855,11743,01.140,551
2023-02-06T00:45:53,42.805,6.029,CST-1368DR,4393,4856,11746,01.139,551
2023-02-06T00:48:55,42.805,6.029,CST-1368DR,4393,4854,11741,01.141,551
2023-02-06T00:51:57,42.805,6.029,CST-1368DR,4393,4855,11744,01.140,551
2023-02-06T00:54:58,42.805,6.029,CST-1368DR,4393,4855,11743,01.140,551
2023-02-06T00:58:00,42.805,6.029,CST-1368DR,4393,4855,11743,01.140,551
2023-02-06T01:01:01,42.805,6.029,CST-1368DR,4393,4854,11741,01.141,551
2023-02-06T01:04:03,42.805,6.029,CST-1368DR,4393,4854,11742,01.140,551
2023-02-06T01:07:04,42.805,6.029,CST-1368DR,4393,4857,11747,01.139,551
2023-02-06T01:10:06,42.805,6.029,CST-1368DR,4393,4854,11741,01.141,551
2023-02-06T01:13:08,42.805,6.029,CST-1368DR,4393,4854,11742,01.140,551
2023-02-06T01:16:09,42.805,6.029,CST-1368DR,4393,4854,11741,01.141,551
2023-02-06T01:19:11,42.805,6.029,CST-1368DR,4393,4853,11739,01.142,551
2023-02-06T01:22:12,42.805,6.029,CST-1368DR,4393,4854,11742,01.140,551
2023-02-06T01:25:14,42.805,6.029,CST-1368DR,4393,4854,11742,01.140,551
2023-02-06T01:28:15,42.805,6.029,CST-1368DR,4393,4853,11739,01.142,551
2023-02-06T01:31:17,42.805,6.029,CST-1368DR,4393,4854,11741,01.141,551
2023-02-06T01:34:19,42.805,6.029,CST-1368DR,4393,4854,11741,01.141,551
2023-02-06T01:37:20,42.805,6.029,CST-1368DR,4393,4854,11741,01.141,551
2023-02-06T01:40:22,42.805,6.029,CST-1368DR,4392,4854,11744,01.140,551
2023-02-06T01:43:23,42.805,6.029,CST-1368DR,4393,4855,11743,01.140,551
2023-02-06T01:46:25,42.805,6.029,CST-1368DR,4393,4854,11742,01.140,551
2023-02-06T01:49:27,42.805,6.029,CST-1368DR,4393,4855,11744,01.140,551
2023-02-06T01:52:28,42.805,6.029,CST-1368DR,4393,4856,11747,01.139,551
2023-02-06T01:55:30,42.805,6.029,CST-1368DR,4393,4854,11741,01.141,551
2023-02-06T01:58:31,42.805,6.029,CST-1368DR,4393,4857,11747,01.139,551
2023-02-06T02:01:33,42.805,6.029,CST-1368DR,4393,4854,11742,01.140,551
2023-02-06T02:04:34,42.805,6.029,CST-1368DR,4393,4857,11749,01.138,551
2023-02-06T02:07:36,42.805,6.029,CST-1368DR,4393,4857,11748,01.138,551
2023-02-06T02:10:38,42.805,6.029,CST-1368DR,4393,4855,11743,01.140,551
2023-02-06T02:13:39,42.805,6.029,CST-1368DR,4393,4856,11746,01.139,551
2023-02-06T02:16:41,42.805,6.029,CST-1368DR,4393,4854,11741,01.141,551
2023-02-06T02:19:42,42.805,6.029,CST-1368DR,4393,4855,11743,01.140,551
2023-02-06T02:22:44,42.805,6.029,CST-1368DR,4393,4850,11730,01.145,551
2023-02-06T02:25:45,42.805,6.029,CST-1368DR,4393,4855,11744,01.140,551
2023-02-06T02:28:47,42.805,6.029,CST-1368DR,4393,4853,11739,01.142,551
2023-02-06T02:31:49,42.805,6.029,CST-1368DR,4393,4855,11743,01.140,551
2023-02-06T02:34:50,42.805,6.029,CST-1368DR,4393,4857,11749,01.138,551
2023-02-06T02:37:52,42.805,6.029,CST-1368DR,4393,4855,11744,01.140,551
2023-02-06T02:40:53,42.805,6.029,CST-1368DR,4393,4854,11741,01.141,551
2023-02-06T02:43:55,42.805,6.029,CST-1368DR,4392,4854,11743,01.140,551
2023-02-06T02:46:57,42.805,6.029,CST-1368DR,4393,4855,11743,01.140,551
2023-02-06T02:49:58,42.805,6.029,CST-1368DR,4393,4855,11743,01.140,551
2023-02-06T02:53:00,42.805,6.029,CST-1368DR,4393,4855,11743,01.140,551
2023-02-06T02:56:01,42.805,6.029,CST-1368DR,4392,4854,11744,01.140,551
2023-02-06T02:59:03,42.805,6.029,CST-1368DR,4393,4857,11749,01.138,551
2023-02-06T03:02:04,42.805,6.029,CST-1368DR,4393,4856,11745,01.139,551
2023-02-06T03:05:06,42.805,6.029,CST-1368DR,4393,4855,11743,01.140,551
2023-02-06T03:08:08,42.805,6.029,CST-1368DR,4393,4855,11744,01.140,551
2023-02-06T03:11:09,42.805,6.029,CST-1368DR,4392,4855,11745,01.139,551
2023-02-06T03:14:11,42.805,6.029,CST-1368DR,4393,4855,11743,01.140,551
2023-02-06T03:17:12,42.805,6.029,CST-1368DR,4393,4854,11742,01.140,551
2023-02-06T03:20:14,42.805,6.029,CST-1368DR,4393,4855,11743,01.140,551
2023-02-06T03:23:15,42.805,6.029,CST-1368DR,4393,4855,11743,01.140,551
2023-02-06T03:26:17,42.805,6.029,CST-1368DR,4393,4854,11741,01.141,551
2023-02-06T03:29:19,42.805,6.029,CST-1368DR,4393,4854,11742,01.140,551
2023-02-06T03:32:20,42.805,6.029,CST-1368DR,4392,4855,11746,01.139,551
2023-02-06T03:35:22,42.805,6.029,CST-1368DR,4393,4854,11741,01.141,551
2023-02-06T03:38:23,42.805,6.029,CST-1368DR,4393,4855,11743,01.140,551
2023-02-06T03:41:25,42.805,6.029,CST-1368DR,4393,4856,11746,01.139,551
2023-02-06T03:44:26,42.805,6.029,CST-1368DR,4393,4855,11743,01.140,551
2023-02-06T03:47:28,42.805,6.029,CST-1368DR,4393,4855,11743,01.140,551
2023-02-06T03:50:30,42.805,6.029,CST-1368DR,4392,4855,11746,01.139,551
2023-02-06T03:53:31,42.805,6.029,CST-1368DR,4393,4854,11741,01.141,551
2023-02-06T03:56:33,42.805,6.029,CST-1368DR,4392,4855,11745,01.139,551
2023-02-06T03:59:34,42.805,6.029,CST-1368DR,4393,4856,11747,01.139,551
2023-02-06T04:02:36,42.805,6.029,CST-1368DR,4393,4858,11751,01.137,551
2023-02-06T04:05:37,42.805,6.029,CST-1368DR,4393,4855,11744,01.140,551
2023-02-06T04:08:39,42.805,6.029,CST-1368DR,4392,4855,11746,01.139,551
2023-02-06T04:11:41,42.805,6.029,CST-1368DR,4393,4854,11741,01.141,551
2023-02-06T04:14:42,42.805,6.029,CST-1368DR,4392,4857,11752,01.137,551
2023-02-06T04:17:44,42.805,6.029,CST-1368DR,4392,4855,11747,01.139,551
2023-02-06T04:20:45,42.805,6.029,CST-1368DR,4393,4855,11744,01.140,551
2023-02-06T04:23:47,42.805,6.029,CST-1368DR,4393,4855,11744,01.140,551
2023-02-06T04:26:49,42.805,6.029,CST-1368DR,4393,4857,11749,01.138,551
2023-02-06T04:29:50,42.805,6.029,CST-1368DR,4392,4859,11755,01.136,551
2023-02-06T04:32:52,42.805,6.029,CST-1368DR,4392,4855,11747,01.139,551
2023-02-06T04:35:53,42.805,6.029,CST-1368DR,4393,4853,11738,01.142,551
2023-02-06T04:38:55,42.805,6.029,CST-1368DR,4392,4853,11741,01.141,551
2023-02-06T04:41:56,42.805,6.029,CST-1368DR,4392,4855,11745,01.139,551
2023-02-06T04:44:58,42.805,6.029,CST-1368DR,4392,4855,11745,01.139,551
2023-02-06T04:48:00,42.805,6.029,CST-1368DR,4393,4857,11747,01.139,551
2023-02-06T04:51:01,42.805,6.029,CST-1368DR,4392,4855,11745,01.139,551
2023-02-06T04:54:03,42.805,6.029,CST-1368DR,4392,4857,11751,01.137,551
2023-02-06T04:57:04,42.805,6.029,CST-1368DR,4392,4855,11746,01.139,551
2023-02-06T05:00:06,42.805,6.029,CST-1368DR,4392,4855,11747,01.139,551
2023-02-06T05:03:07,42.805,6.029,CST-1368DR,4393,4855,11743,01.140,551
2023-02-06T05:06:09,42.805,6.029,CST-1368DR,4392,4854,11744,01.140,551
2023-02-06T05:09:11,42.805,6.029,CST-1368DR,4392,4856,11747,01.139,551
2023-02-06T05:12:12,42.805,6.029,CST-1368DR,4392,4855,11747,01.139,551
2023-02-06T05:15:14,42.805,6.029,CST-1368DR,4392,4854,11744,01.140,551
2023-02-06T05:18:15,42.805,6.029,CST-1368DR,4392,4856,11747,01.139,551
2023-02-06T05:21:17,42.805,6.029,CST-1368DR,4392,4855,11746,01.139,551
2023-02-06T05:24:19,42.805,6.029,CST-1368DR,4392,4854,11743,01.140,551
2023-02-06T05:27:20,42.805,6.029,CST-1368DR,4392,4856,11747,01.139,551
2023-02-06T05:30:22,42.805,6.029,CST-1368DR,4392,4859,11755,01.136,551
2023-02-06T05:33:23,42.805,6.029,CST-1368DR,4392,4856,11747,01.139,551
2023-02-06T05:36:25,42.805,6.029,CST-1368DR,4392,4867,11775,01.129,551
2023-02-06T05:39:26,42.805,6.029,CST-1368DR,4392,4861,11760,01.134,551
2023-02-06T05:42:28,42.805,6.029,CST-1368DR,4392,4857,11751,01.137,551
2023-02-06T05:45:30,42.805,6.029,CST-1368DR,4392,4857,11750,01.138,551
2023-02-06T05:48:31,42.805,6.029,CST-1368DR,4392,4855,11746,01.139,551
2023-02-06T05:51:33,42.805,6.029,CST-1368DR,4392,4857,11750,01.138,551
2023-02-06T05:54:34,42.805,6.029,CST-1368DR,4392,4854,11744,01.140,551
2023-02-06T05:57:36,42.805,6.029,CST-1368DR,4392,4854,11743,01.140,551
2023-02-06T06:00:37,42.805,6.029,CST-1368DR,4392,4853,11741,01.141,551
2023-02-06T06:03:39,42.805,6.029,CST-1368DR,4392,4853,11742,01.140,551
2023-02-06T06:06:41,42.805,6.029,CST-1368DR,4392,4854,11744,01.140,551
2023-02-06T06:09:42,42.805,6.029,CST-1368DR,4392,4853,11742,01.140,551
2023-02-06T06:12:44,42.805,6.029,CST-1368DR,4392,4853,11742,01.140,551
2023-02-06T06:15:45,42.805,6.029,CST-1368DR,4392,4854,11743,01.140,551
2023-02-06T06:18:47,42.805,6.029,CST-1368DR,4392,4854,11744,01.140,551
2023-02-06T06:21:49,42.805,6.029,CST-1368DR,4392,4855,11745,01.139,551
2023-02-06T06:24:50,42.805,6.029,CST-1368DR,4392,4854,11743,01.140,551
2023-02-06T06:27:52,42.805,6.029,CST-1368DR,4392,4854,11743,01.140,551
2023-02-06T06:30:53,42.805,6.029,CST-1368DR,4392,4854,11744,01.140,551
2023-02-06T06:33:55,42.805,6.029,CST-1368DR,4392,4855,11746,01.139,551
2023-02-06T06:36:56,42.805,6.029,CST-1368DR,4392,4855,11747,01.139,551
2023-02-06T06:39:58,42.805,6.029,CST-1368DR,4392,4854,11743,01.140,551
2023-02-06T06:43:00,42.805,6.029,CST-1368DR,4392,4853,11741,01.141,551
2023-02-06T06:46:01,42.805,6.029,CST-1368DR,4392,4855,11745,01.139,551
2023-02-06T06:49:03,42.805,6.029,CST-1368DR,4392,4854,11744,01.140,551
2023-02-06T06:52:04,42.805,6.029,CST-1368DR,4392,4858,11752,01.137,551
2023-02-06T06:55:06,42.805,6.029,CST-1368DR,4392,4853,11741,01.141,551
2023-02-06T06:58:07,42.805,6.029,CST-1368DR,4392,4854,11743,01.140,551
2023-02-06T07:01:09,42.805,6.029,CST-1368DR,4392,4854,11743,01.140,551
2023-02-06T07:04:11,42.805,6.029,CST-1368DR,4392,4854,11743,01.140,551
2023-02-06T07:07:12,42.805,6.029,CST-1368DR,4392,4853,11742,01.140,551
2023-02-06T07:10:14,42.805,6.029,CST-1368DR,4392,4853,11741,01.141,551
2023-02-06T07:13:15,42.805,6.029,CST-1368DR,4392,4853,11741,01.141,551
2023-02-06T07:16:17,42.805,6.029,CST-1368DR,4392,4853,11741,01.141,551
2023-02-06T07:19:19,42.805,6.029,CST-1368DR,4392,4853,11741,01.141,551
2023-02-06T07:22:20,42.805,6.029,CST-1368DR,4392,4852,11739,01.142,551
2023-02-06T07:25:22,42.805,6.029,CST-1368DR,4392,4853,11742,01.140,551
2023-02-06T07:28:23,42.805,6.029,CST-1368DR,4392,4853,11741,01.141,551
2023-02-06T07:31:25,42.805,6.029,CST-1368DR,4392,4850,11734,01.143,551
2023-02-06T07:34:26,42.805,6.029,CST-1368DR,4392,4851,11737,01.142,551
2023-02-06T07:37:28,42.805,6.029,CST-1368DR,4392,4853,11742,01.140,551
2023-02-06T07:40:30,42.805,6.029,CST-1368DR,4392,4853,11741,01.141,551
2023-02-06T07:43:31,42.805,6.029,CST-1368DR,4392,4853,11741,01.141,551
2023-02-06T07:46:33,42.805,6.029,CST-1368DR,4392,4853,11742,01.140,551
2023-02-06T07:49:34,42.805,6.029,CST-1368DR,4392,4854,11743,01.140,551
2023-02-06T07:52:36,42.805,6.029,CST-1368DR,4392,4854,11743,01.140,551
2023-02-06T07:55:37,42.805,6.029,CST-1368DR,4392,4852,11739,01.142,551
2023-02-06T07:58:39,42.805,6.029,CST-1368DR,4392,4853,11741,01.141,551
2023-02-06T08:01:41,42.805,6.029,CST-1368DR,4392,4851,11737,01.142,551
2023-02-06T08:04:42,42.805,6.029,CST-1368DR,4392,4853,11741,01.141,551
2023-02-06T08:07:44,42.805,6.029,CST-1368DR,4392,4851,11737,01.142,551
2023-02-06T08:10:45,42.805,6.029,CST-1368DR,4392,4852,11739,01.142,551
2023-02-06T08:13:47,42.805,6.029,CST-1368DR,4392,4852,11740,01.141,551
2023-02-06T08:16:48,42.805,6.029,CST-1368DR,4392,4853,11741,01.141,551
2023-02-06T08:19:50,42.805,6.029,CST-1368DR,4392,4853,11742,01.140,551
2023-02-06T08:22:52,42.805,6.029,CST-1368DR,4392,4852,11740,01.141,551
2023-02-06T08:25:53,42.805,6.029,CST-1368DR,4392,4852,11738,01.142,551
2023-02-06T08:28:55,42.805,6.029,CST-1368DR,4392,4852,11738,01.142,551
2023-02-06T08:31:56,42.805,6.029,CST-1368DR,4392,4852,11738,01.142,551
2023-02-06T08:34:58,42.805,6.029,CST-1368DR,4392,4851,11737,01.142,551
2023-02-06T08:38:00,42.805,6.029,CST-1368DR,4392,4852,11738,01.142,551
2023-02-06T08:41:01,42.805,6.029,CST-1368DR,4392,4852,11739,01.142,551
2023-02-06T08:44:03,42.805,6.029,CST-1368DR,4392,4852,11738,01.142,551
2023-02-06T08:47:04,42.805,6.029,CST-1368DR,4392,4853,11741,01.141,551
2023-02-06T08:50:06,42.805,6.029,CST-1368DR,4392,4851,11736,01.143,551
2023-02-06T08:53:07,42.805,6.029,CST-1368DR,4392,4851,11737,01.142,551
2023-02-06T08:56:09,42.805,6.029,CST-1368DR,4392,4852,11740,01.141,551
2023-02-06T08:59:11,42.805,6.029,CST-1368DR,4392,4851,11736,01.143,551
2023-02-06T09:02:12,42.805,6.029,CST-1368DR,4392,4851,11737,01.142,551
2023-02-06T09:05:14,42.805,6.029,CST-1368DR,4392,4851,11736,01.143,551
2023-02-06T09:08:15,42.805,6.029,CST-1368DR,4392,4851,11737,01.142,551
2023-02-06T09:11:17,42.805,6.029,CST-1368DR,4392,4851,11735,01.143,551
2023-02-06T09:14:18,42.805,6.029,CST-1368DR,4392,4850,11734,01.143,551
2023-02-06T09:17:20,42.805,6.029,CST-1368DR,4392,4850,11733,01.144,551
2023-02-06T09:20:22,42.805,6.029,CST-1368DR,4392,4850,11733,01.144,551
2023-02-06T09:23:23,42.805,6.029,CST-1368DR,4392,4849,11731,01.144,551
2023-02-06T09:26:25,42.805,6.029,CST-1368DR,4392,4849,11731,01.144,551
2023-02-06T09:29:26,42.805,6.029,CST-1368DR,4392,4848,11730,01.145,551
2023-02-06T09:32:28,42.805,6.029,CST-1368DR,4392,4850,11734,01.143,551
2023-02-06T09:35:29,42.805,6.029,CST-1368DR,4392,4850,11734,01.143,551
2023-02-06T09:38:31,42.805,6.029,CST-1368DR,4392,4847,11728,01.145,551
2023-02-06T09:41:33,42.805,6.029,CST-1368DR,4392,4850,11733,01.144,551
2023-02-06T09:44:34,42.805,6.029,CST-1368DR,4392,4848,11729,01.145,551
2023-02-06T09:47:36,42.805,6.029,CST-1368DR,4392,4849,11731,01.144,551
2023-02-06T09:50:37,42.805,6.029,CST-1368DR,4392,4850,11733,01.144,551
2023-02-06T09:53:39,42.805,6.029,CST-1368DR,4392,4850,11734,01.143,551
2023-02-06T09:56:41,42.805,6.029,CST-1368DR,4392,4850,11734,01.143,551
2023-02-06T09:59:42,42.805,6.029,CST-1368DR,4392,4849,11731,01.144,551
2023-02-06T10:02:44,42.805,6.029,CST-1368DR,4392,4850,11734,01.143,551
2023-02-06T10:05:45,42.805,6.029,CST-1368DR,4392,4856,11748,01.138,551
2023-02-06T10:08:47,42.805,6.029,CST-1368DR,4392,4853,11741,01.141,551
2023-02-06T10:11:48,42.805,6.029,CST-1368DR,4392,4852,11740,01.141,551
2023-02-06T10:14:50,42.805,6.029,CST-1368DR,4392,4850,11734,01.143,551
2023-02-06T10:17:52,42.805,6.029,CST-1368DR,4392,4850,11735,01.143,551
2023-02-06T10:20:53,42.805,6.029,CST-1368DR,4392,4851,11737,01.142,551
2023-02-06T10:23:55,42.805,6.029,CST-1368DR,4392,4851,11736,01.143,551
2023-02-06T10:26:56,42.805,6.029,CST-1368DR,4392,4850,11735,01.143,551
2023-02-06T10:29:58,42.805,6.029,CST-1368DR,4392,4851,11735,01.143,551
2023-02-06T10:32:59,42.805,6.029,CST-1368DR,4392,4850,11734,01.143,551
2023-02-06T10:36:01,42.805,6.029,CST-1368DR,4392,4851,11737,01.142,551
2023-02-06T10:39:03,42.805,6.029,CST-1368DR,4392,4851,11736,01.143,551
2023-02-06T10:42:04,42.805,6.029,CST-1368DR,4392,4851,11737,01.142,551
2023-02-06T10:45:06,42.805,6.029,CST-1368DR,4392,4852,11738,01.142,551
2023-02-06T10:48:07,42.805,6.029,CST-1368DR,4392,4853,11741,01.141,551
2023-02-06T10:51:09,42.805,6.029,CST-1368DR,4392,4853,11741,01.141,551
2023-02-06T10:54:11,42.805,6.029,CST-1368DR,4392,4852,11738,01.142,551
2023-02-06T10:57:12,42.805,6.029,CST-1368DR,4392,4852,11739,01.142,551
2023-02-06T11:00:14,42.805,6.029,CST-1368DR,4392,4853,11741,01.141,551
2023-02-06T11:03:15,42.805,6.029,CST-1368DR,4392,4853,11741,01.141,551
2023-02-06T11:06:17,42.805,6.029,CST-1368DR,4392,4852,11738,01.142,551
2023-02-06T11:09:18,42.805,6.029,CST-1368DR,4392,4852,11738,01.142,551
2023-02-06T11:12:20,42.805,6.029,CST-1368DR,4392,4852,11738,01.142,551
2023-02-06T11:15:22,42.805,6.029,CST-1368DR,4392,4852,11738,01.142,551
2023-02-06T11:18:23,42.805,6.029,CST-1368DR,4392,4851,11737,01.142,551
2023-02-06T11:21:25,42.805,6.029,CST-1368DR,4392,4850,11734,01.143,551
2023-02-06T11:24:26,42.805,6.029,CST-1368DR,4392,4851,11735,01.143,551
2023-02-06T11:27:28,42.805,6.029,CST-1368DR,4392,4851,11735,01.143,551
2023-02-06T11:30:29,42.805,6.029,CST-1368DR,4392,4850,11734,01.143,551
2023-02-06T11:33:31,42.805,6.029,CST-1368DR,4392,4850,11734,01.143,551
2023-02-06T11:36:33,42.805,6.029,CST-1368DR,4392,4851,11735,01.143,551
2023-02-06T11:39:34,42.805,6.029,CST-1368DR,4392,4848,11729,01.145,551
2023-02-06T11:42:36,42.805,6.029,CST-1368DR,4392,4850,11733,01.144,551
2023-02-06T11:45:37,42.805,6.029,CST-1368DR,4392,4849,11731,01.144,551
2023-02-06T11:48:39,42.805,6.029,CST-1368DR,4392,4850,11734,01.143,551
2023-02-06T11:51:41,42.805,6.029,CST-1368DR,4392,4851,11736,01.143,551
2023-02-06T11:54:42,42.805,6.029,CST-1368DR,4392,4851,11736,01.143,551
2023-02-06T11:57:44,42.805,6.029,CST-1368DR,4392,4851,11735,01.143,551
2023-02-06T12:00:45,42.805,6.029,CST-1368DR,4392,4851,11735,01.143,551
2023-02-06T12:03:47,42.805,6.029,CST-1368DR,4392,4851,11736,01.143,551
2023-02-06T12:06:48,42.805,6.029,CST-1368DR,4392,4850,11735,01.143,551
2023-02-06T12:09:50,42.805,6.029,CST-1368DR,4392,4850,11735,01.143,551
2023-02-06T12:12:52,42.805,6.029,CST-1368DR,4392,4850,11734,01.143,551
2023-02-06T12:15:53,42.805,6.029,CST-1368DR,4392,4849,11732,01.144,551
2023-02-06T12:18:55,42.805,6.029,CST-1368DR,4392,4849,11732,01.144,551
2023-02-06T12:21:56,42.805,6.029,CST-1368DR,4392,4849,11731,01.144,551
2023-02-06T12:24:58,42.805,6.029,CST-1368DR,4392,4850,11733,01.144,551
2023-02-06T12:27:59,42.805,6.029,CST-1368DR,4392,4850,11734,01.143,551
2023-02-06T12:31:01,42.805,6.029,CST-1368DR,4392,4846,11725,01.146,551
2023-02-06T12:34:03,42.805,6.029,CST-1368DR,4392,4849,11732,01.144,551
2023-02-06T12:37:04,42.805,6.029,CST-1368DR,4392,4849,11732,01.144,551
2023-02-06T12:40:06,42.805,6.029,CST-1368DR,4392,4850,11733,01.144,551
2023-02-06T12:43:07,42.805,6.029,CST-1368DR,4392,4850,11734,01.143,551
2023-02-06T12:46:09,42.805,6.029,CST-1368DR,4392,4850,11734,01.143,551
2023-02-06T12:49:11,42.805,6.029,CST-1368DR,4392,4849,11732,01.144,551
2023-02-06T12:52:12,42.805,6.029,CST-1368DR,4392,4850,11735,01.143,551
2023-02-06T12:55:14,42.805,6.029,CST-1368DR,4392,4852,11738,01.142,551
2023-02-06T12:58:15,42.805,6.029,CST-1368DR,4392,4852,11739,01.142,551
2023-02-06T13:01:17,42.805,6.029,CST-1368DR,4392,4853,11741,01.141,551
2023-02-06T13:04:18,42.805,6.029,CST-1368DR,4392,4852,11738,01.142,551
2023-02-06T13:07:20,42.805,6.029,CST-1368DR,4392,4854,11743,01.140,551
2023-02-06T13:10:22,42.805,6.029,CST-1368DR,4392,4853,11742,01.140,551
2023-02-06T13:13:23,42.805,6.029,CST-1368DR,4392,4852,11738,01.142,551
2023-02-06T13:16:25,42.805,6.029,CST-1368DR,4392,4853,11741,01.141,551
2023-02-06T13:19:26,42.805,6.029,CST-1368DR,4392,4852,11738,01.142,551
2023-02-06T13:22:28,42.805,6.029,CST-1368DR,4392,4853,11742,01.140,551
2023-02-06T13:25:29,42.805,6.029,CST-1368DR,4392,4853,11741,01.141,551
2023-02-06T13:28:31,42.805,6.029,CST-1368DR,4392,4852,11739,01.142,551
2023-02-06T13:31:33,42.805,6.029,CST-1368DR,4392,4853,11741,01.141,551
2023-02-06T13:34:34,42.805,6.029,CST-1368DR,4392,4854,11743,01.140,551
2023-02-06T13:37:36,42.805,6.029,CST-1368DR,4392,4854,11743,01.140,551
2023-02-06T13:40:37,42.805,6.029,CST-1368DR,4392,4856,11748,01.138,551
2023-02-06T13:43:39,42.805,6.029,CST-1368DR,4392,4855,11745,01.139,551
2023-02-06T13:46:41,42.805,6.029,CST-1368DR,4392,4853,11742,01.140,551
2023-02-06T13:49:42,42.805,6.029,CST-1368DR,4392,4856,11748,01.138,551
2023-02-06T13:52:44,42.805,6.029,CST-1368DR,4392,4856,11747,01.139,551
2023-02-06T13:55:45,42.805,6.029,CST-1368DR,4392,4855,11746,01.139,551
2023-02-06T13:58:47,42.805,6.029,CST-1368DR,4392,4854,11744,01.140,551
2023-02-06T14:01:48,42.805,6.029,CST-1368DR,4392,4854,11744,01.140,551
2023-02-06T14:04:50,42.805,6.029,CST-1368DR,4392,4857,11751,01.137,551
2023-02-06T14:07:52,42.805,6.029,CST-1368DR,4392,4854,11743,01.140,551
2023-02-06T14:10:53,42.805,6.029,CST-1368DR,4392,4855,11747,01.139,551
2023-02-06T14:13:55,42.805,6.029,CST-1368DR,4392,4854,11744,01.140,551
2023-02-06T14:16:56,42.805,6.029,CST-1368DR,4392,4854,11744,01.140,551
2023-02-06T14:19:58,42.805,6.029,CST-1368DR,4392,4856,11749,01.138,551
2023-02-06T14:22:59,42.805,6.029,CST-1368DR,4392,4856,11747,01.139,551
2023-02-06T14:26:01,42.805,6.029,CST-1368DR,4392,4855,11747,01.139,551
2023-02-06T14:29:03,42.805,6.029,CST-1368DR,4392,4855,11745,01.139,551
2023-02-06T14:32:04,42.805,6.029,CST-1368DR,4392,4854,11744,01.140,551
2023-02-06T14:35:06,42.805,6.029,CST-1368DR,4392,4855,11746,01.139,551
2023-02-06T14:38:07,42.805,6.029,CST-1368DR,4392,4858,11754,01.136,551
2023-02-06T14:41:09,42.805,6.029,CST-1368DR,4392,4859,11755,01.136,551
2023-02-06T14:44:10,42.805,6.029,CST-1368DR,4392,4859,11755,01.136,551
2023-02-06T14:47:12,42.805,6.029,CST-1368DR,4392,4854,11744,01.140,551
2023-02-06T14:50:14,42.805,6.029,CST-1368DR,4392,4852,11738,01.142,551
2023-02-06T14:53:15,42.805,6.029,CST-1368DR,4392,4856,11747,01.139,551
2023-02-06T14:56:17,42.805,6.029,CST-1368DR,4392,4855,11745,01.139,551
2023-02-06T14:59:18,42.805,6.029,CST-1368DR,4392,4855,11745,01.139,551
2023-02-06T15:02:20,42.805,6.029,CST-1368DR,4392,4855,11746,01.139,551
2023-02-06T15:05:22,42.805,6.029,CST-1368DR,4392,4854,11744,01.140,551
2023-02-06T15:08:23,42.805,6.029,CST-1368DR,4392,4857,11751,01.137,551
2023-02-06T15:11:25,42.805,6.029,CST-1368DR,4392,4854,11744,01.140,551
2023-02-06T15:14:26,42.805,6.029,CST-1368DR,4392,4854,11744,01.140,551
2023-02-06T15:17:28,42.805,6.029,CST-1368DR,4392,4856,11749,01.138,551
2023-02-06T15:20:29,42.805,6.029,CST-1368DR,4392,4854,11744,01.140,551
2023-02-06T15:23:31,42.805,6.029,CST-1368DR,4392,4857,11752,01.137,551
2023-02-06T15:26:33,42.805,6.029,CST-1368DR,4392,4858,11752,01.137,551
2023-02-06T15:29:34,42.805,6.029,CST-1368DR,4392,4855,11746,01.139,551
2023-02-06T15:32:36,42.805,6.029,CST-1368DR,4392,4854,11744,01.140,551
2023-02-06T15:35:37,42.805,6.029,CST-1368DR,4392,4855,11747,01.139,551
2023-02-06T15:38:39,42.805,6.029,CST-1368DR,4392,4855,11746,01.139,551
2023-02-06T15:41:40,42.805,6.029,CST-1368DR,4392,4855,11745,01.139,551
2023-02-06T15:44:42,42.805,6.029,CST-1368DR,4392,4857,11750,01.138,551
2023-02-06T15:47:44,42.805,6.029,CST-1368DR,4392,4852,11739,01.142,551
2023-02-06T15:50:45,42.805,6.029,CST-1368DR,4392,4854,11744,01.140,551
2023-02-06T15:53:47,42.805,6.029,CST-1368DR,4392,4856,11748,01.138,551
2023-02-06T15:56:48,42.805,6.029,CST-1368DR,4392,4855,11746,01.139,551
2023-02-06T15:59:50,42.805,6.029,CST-1368DR,4392,4855,11746,01.139,551
2023-02-06T16:02:52,42.805,6.029,CST-1368DR,4392,4854,11744,01.140,551
2023-02-06T16:05:53,42.805,6.029,CST-1368DR,4392,4855,11746,01.139,551
2023-02-06T16:08:55,42.805,6.029,CST-1368DR,4392,4857,11750,01.138,551
2023-02-06T16:11:56,42.805,6.029,CST-1368DR,4392,4854,11743,01.140,551
2023-02-06T16:14:58,42.805,6.029,CST-1368DR,4392,4854,11744,01.140,551
2023-02-06T16:17:59,42.805,6.029,CST-1368DR,4392,4854,11744,01.140,551
2023-02-06T16:21:01,42.805,6.029,CST-1368DR,4392,4856,11748,01.138,551
2023-02-06T16:24:03,42.805,6.029,CST-1368DR,4392,4854,11744,01.140,551
2023-02-06T16:27:04,42.805,6.029,CST-1368DR,4392,4853,11741,01.141,551
2023-02-06T16:30:06,42.805,6.029,CST-1368DR,4392,4858,11753,01.137,551
2023-02-06T16:33:07,42.805,6.029,CST-1368DR,4392,4855,11746,01.139,551
2023-02-06T16:36:09,42.805,6.029,CST-1368DR,4392,4855,11746,01.139,551